Weather History for Pascagoula, MS

Change the Weather History Date:

Tuesday, May 28, 2013

  Actual Average Record
Temperature  
Mean Temperature 70 °F -  
Max Temperature 84 °F 85 °F 97 °F (1978)
Min Temperature 55 °F 70 °F 50 °F (1961)
Cooling Degree Days 4    
Growing Degree Days 20 (Base 50)    
Moisture  
Dew Point 61 °F    
Average Humidity 84    
Maximum Humidity 100    
Minimum Humidity 56    
Precipitation  
Precipitation 0.00 in - - ()
Sea Level Pressure  
Sea Level Pressure 30.07 in    
Wind  
Wind Speed 2 mph (SE)    
Max Wind Speed 15 mph    
Max Gust Speed 23 mph    
Visibility 6 miles    
Events Fog    
Averages and records for this station are not official NWS values.
T = Trace of Precipitation, MM = Missing Value Source: NWS Daily Summary

Daily Weather History Graph

Daily Weather History Graph

Search for Another Location

Airport:

Trip Planner

Search our weather history database for the weather conditions in past years. The results will help you decide how hot, cold, wet, or windy it might be!

Date:

Astronomy

May. 28, 2013 Rise Set
Actual Time 5:53 AM CDT 7:49 PM CDT
Civil Twilight 5:26 AM CDT 8:16 PM CDT
Nautical Twilight 4:53 AM CDT 8:49 PM CDT
Astronomical Twilight 4:18 AM CDT 9:24 PM CDT
Moon 11:22 PM CDT (5/28) 9:35 AM CDT (5/28)
Length of Visible Light 14h 50m
Length of Day
13h 56m
Waning Gibbous, 82% of the Moon is Illuminated
May 28
Waning Gibbous
May 31
Last Quarter
Jun 8
New
Jun 16
First Quarter
Jun 23
Full

Hourly Weather History & Observations

Time (CDT) Temp. Heat Index Dew Point Humidity Pressure Visibility Wind Dir Wind Speed Gust Speed Precip Events Conditions
12:00 AM 62.6 °F - 60.8 °F 94% 30.09 in 0.5 mi Calm Calm - N/A Fog Fog
12:27 AM 62.6 °F - 60.8 °F 94% 30.09 in 3.0 mi Calm Calm - N/A   Clear
12:53 AM 60.1 °F - 57.9 °F 93% 30.10 in 8.0 mi Calm Calm - N/A   Clear
1:53 AM 59.0 °F - 57.0 °F 93% 30.09 in 6.0 mi Calm Calm - N/A   Clear
2:08 AM 59.0 °F - 57.2 °F 94% 30.08 in 2.0 mi Calm Calm - N/A   Clear
2:19 AM 59.0 °F - 57.2 °F 94% 30.07 in 0.8 mi Calm Calm - N/A   Clear
2:28 AM 60.8 °F - 57.2 °F 88% 30.07 in 2.0 mi Calm Calm - N/A   Clear
2:36 AM 60.8 °F - 57.2 °F 88% 30.07 in 7.0 mi Calm Calm - N/A   Clear
2:53 AM 59.0 °F - 57.0 °F 93% 30.06 in 2.0 mi Calm Calm - N/A   Clear
2:59 AM 57.2 °F - 57.2 °F 100% 30.06 in 0.8 mi Calm Calm - N/A   Clear
3:10 AM 57.2 °F - 55.4 °F 94% 30.06 in 2.5 mi Calm Calm - N/A   Clear
3:15 AM 57.2 °F - 55.4 °F 94% 30.06 in 0.8 mi Calm Calm - N/A   Clear
3:32 AM 57.2 °F - 55.4 °F 94% 30.06 in 1.2 mi Calm Calm - N/A   Clear
3:39 AM 57.2 °F - 55.4 °F 94% 30.06 in 3.0 mi Calm Calm - N/A   Clear
3:53 AM 57.0 °F - 55.9 °F 96% 30.07 in 1.5 mi Calm Calm - N/A   Clear
4:11 AM 57.2 °F - 55.4 °F 94% 30.06 in 0.5 mi Calm Calm - N/A Fog Fog
4:22 AM 55.4 °F - 55.4 °F 100% 30.06 in 1.0 mi Calm Calm - N/A   Clear
4:29 AM 57.2 °F - 55.4 °F 94% 30.06 in 4.0 mi Calm Calm - N/A   Clear
4:53 AM 55.9 °F - 55.0 °F 97% 30.08 in 5.0 mi Calm Calm - N/A   Clear
5:01 AM 55.4 °F - 55.4 °F 100% 30.07 in 2.0 mi Calm Calm - N/A   Clear
5:25 AM 57.2 °F - 55.4 °F 94% 30.08 in 0.8 mi Calm Calm - N/A   Clear
5:35 AM 57.2 °F - 55.4 °F 94% 30.08 in 2.0 mi Calm Calm - N/A   Clear
5:42 AM 57.2 °F - 55.4 °F 94% 30.08 in 8.0 mi Calm Calm - N/A   Clear
5:53 AM 55.9 °F - 55.0 °F 97% 30.09 in 7.0 mi Calm Calm - N/A   Clear
6:53 AM 63.0 °F - 61.0 °F 93% 30.09 in 7.0 mi Calm Calm - N/A   Clear
7:53 AM 72.0 °F - 64.9 °F 78% 30.08 in 10.0 mi East 4.6 mph - N/A   Clear
8:53 AM 77.0 °F - 64.0 °F 64% 30.09 in 10.0 mi SE 11.5 mph - N/A   Partly Cloudy
9:53 AM 80.1 °F 81.9 °F 64.9 °F 60% 30.10 in 10.0 mi SE 12.7 mph - N/A   Scattered Clouds
10:53 AM 81.0 °F 82.7 °F 64.9 °F 58% 30.11 in 10.0 mi SSE 10.4 mph - N/A   Scattered Clouds
11:53 AM 82.9 °F 85.0 °F 66.0 °F 56% 30.11 in 10.0 mi SSE 10.4 mph 23.0 mph N/A   Clear
12:53 PM 82.9 °F 85.0 °F 66.0 °F 56% 30.09 in 10.0 mi SE 8.1 mph 16.1 mph N/A   Clear
1:53 PM 82.0 °F 84.9 °F 68.0 °F 62% 30.09 in 10.0 mi SE 11.5 mph - N/A   Mostly Cloudy
2:53 PM 82.9 °F 85.8 °F 68.0 °F 60% 30.08 in 10.0 mi SSE 11.5 mph - N/A   Scattered Clouds
3:53 PM 84.0 °F 86.5 °F 66.9 °F 56% 30.06 in 10.0 mi SE 8.1 mph 17.3 mph N/A   Clear
4:53 PM 82.9 °F 87.0 °F 70.0 °F 65% 30.05 in 10.0 mi SE 15.0 mph - N/A   Mostly Cloudy
5:05 PM 80.6 °F 83.9 °F 69.8 °F 70% 30.04 in 10.0 mi SE 9.2 mph - N/A   Overcast
5:53 PM 80.1 °F 83.2 °F 70.0 °F 71% 30.05 in 10.0 mi SSE 12.7 mph - N/A   Overcast
6:53 PM 79.0 °F - 71.1 °F 77% 30.05 in 10.0 mi SE 10.4 mph - N/A   Overcast
7:53 PM 77.0 °F - 71.1 °F 82% 30.05 in 10.0 mi SE 6.9 mph - N/A   Partly Cloudy
8:53 PM 75.0 °F - 70.0 °F 84% 30.05 in 10.0 mi SE 6.9 mph - N/A   Clear
9:53 PM 73.9 °F - 70.0 °F 87% 30.06 in 10.0 mi SE 5.8 mph - N/A   Clear
10:53 PM 72.0 °F - 69.1 °F 91% 30.07 in 10.0 mi Calm Calm - N/A   Clear
11:53 PM 73.9 °F - 70.0 °F 87% 30.06 in 10.0 mi SE 6.9 mph - N/A   Partly Cloudy